Preview of NWS' New Version of Forecast
This preview is not operational and should not be used for support decisions.
Latest weather observations around

Santa Barbara, Santa Barbara Municipal Airport (KSBA)

Using English Units (Switch to International System of Units)
Date/ Time (PST) Wind (mph) Vis. (mi) Weather Sky Cond. Temp (°F) Rel. Humidity Wind Chill (°F) Heat Index (°F) Pressure Precip. (in)
Air Dwpt 6 hour Altimeter (inHg) Sea level (inHg) 1 hr 3 hr 6 hr
Max Min
Feb 19 05:53 Calm 10 Clear CLR 33 27     78%     30.11 30.11      
Feb 19 04:53 Calm 10 Clear CLR 35 25     66%     30.1 30.1      
Feb 19 03:53 3 10 Clear CLR 34 26     72% 31   30.1 30.1      
Feb 19 02:53 Calm 10 Clear CLR 39 25     57%     30.11 30.11      
Feb 19 01:53 WNW 3 10 Clear CLR 42 24     49% 40   30.12 30.12      
Feb 19 00:53 WNW 5 10 Clear CLR 47 21     35% 45   30.13 30.13      
Feb 19 00:19 N 11 10 Clear CLR 49 21     33% 44   30.13        
Feb 18 23:53 6 10 Clear CLR 48 21     34% 45   30.14 30.14      
Feb 18 22:53 NNE 14 10 Clear CLR 49 23     36% 44   30.14 30.13      
Feb 18 21:53   10 Clear CLR 48 21     34%     30.13 30.13      
Feb 18 20:53   10 Clear CLR 50 22     33%     30.14 30.14      
Feb 18 19:53 7 10 Clear CLR 49 23     36% 46   30.14 30.14      
Feb 18 18:53 W 6 10 Clear CLR 50 24     36%     30.13 30.13      
Feb 18 17:53 N 16 10 Clear CLR 51 23     33%     30.1 30.1      
Feb 18 16:53   10 Partly Cloudy SCT045 54 23     30%     30.09 30.08      
Feb 18 15:53 N 16 10 Partly Cloudy SCT045 56 23     28%     30.07 30.07      
Feb 18 14:53 NNE 17 10 Mostly Clear FEW040 56 26     31%     30.07 30.07      
Feb 18 13:53 N 17 10 Mostly Clear FEW040 57 29     34%     30.07 30.06      
Feb 18 12:53 NNW 17 10 Mostly Clear FEW035 FEW055 57 32     39%     30.07 30.07      
Feb 18 11:53 N 13 10 Mostly Clear FEW040 57 29     34%     30.09 30.08      
Feb 18 10:53 N 15 10 Clear CLR 55 28     35%     30.09 30.09      
Feb 18 09:53 NNW 14 10 Mostly Clear FEW040 53 27     36%     30.09 30.09      
Feb 18 08:53 N 8 10 Clear CLR 51 26     38%     30.09 30.08      
Feb 18 07:53 N 10 10 Clear CLR 48 28     46% 43   30.08 30.08      
Feb 18 06:53 6 10 Clear CLR 44 28     53% 41   30.07 30.07      
Feb 18 05:53 5 10 Clear CLR 43 28     55% 40   30.05 30.05      
Feb 18 04:53 Calm 10 Clear CLR 43 29     57%     30.05 30.05      
Feb 18 03:53 7 10 Clear CLR 46 29     51% 42   30.05 30.04      
Feb 18 02:53 Calm 10 Clear CLR 43 31     62%     30.05 30.05      
Feb 18 01:53 Calm 10 Clear CLR 42 32     67%     30.06 30.05      
Feb 18 00:53 W 3 10 Clear   48 29     47% 47   30.06 30.06      
Feb 17 23:53 Calm 10 Clear CLR 47 33     58%     30.07 30.06      
Feb 17 22:53 WNW 7 10 Clear CLR 47 32     56% 44   30.06 30.06      
Feb 17 21:53 WNW 8 10 Clear CLR 48 35     61% 44   30.04 30.04     0
Feb 17 20:53 NW 14 10 Partly Cloudy SCT048 50 36     58%     30.03 30.03 0    
Feb 17 19:53 N 11 10 Light Rain BKN050 OVC075 49 39     69% 44   30.02 30.01 0    
Feb 17 18:53 NW 11 10 Partly Cloudy SCT050 49 38     66% 44   30 30   0  
Feb 17 17:53 NW 11 10 Partly Cloudy FEW030 SCT040 SCT060 51 36     56%     29.99 29.99 0    
Feb 17 16:53 WNW 18 10 Partly Cloudy SCT040 54 38     55%     29.97 29.97      
Feb 17 15:53 WNW 20 10 Partly Cloudy and Windy SCT035 55 37     51%     29.97 29.97     0
Feb 17 14:53 WNW 17 10 Partly Cloudy SCT040 56 38     51%     29.98 29.98 0    
Feb 17 13:53 NW 16 10 Light Rain SCT040 SCT055 55 41     59%     30 30 0    
Feb 17 12:53 WNW 21 10 Partly Cloudy and Windy SCT031 SCT047 57 39     51%     30.01 30.01 0 0  
Feb 17 11:53 WNW 14 10 Light Rain FEW041 SCT048 BKN065 54 42     64%     30.04 30.04 0    
Feb 17 10:53 W 13 9 Light Rain BKN030 BKN080 OVC100 52 46     80%     30.07 30.07 0    
Feb 17 09:53 W 8 6 Light Rain BKN030 50 44     80%     30.09 30.09 0   0
Feb 17 08:53 WSW 7 10 Cloudy BKN043 OVC050 52 38     59%     30.1 30.09      
Feb 17 07:53 W 9 10 Mostly Clear FEW050 50 37     61%     30.1 30.1      
Feb 17 06:53   10 Clear CLR 50 31     48%     30.08 30.08      
Feb 17 05:53   10 Clear CLR 49 33     54%     30.08 30.08      
Feb 17 04:53   10 Clear CLR 49 32     52%     30.07 30.07      
Feb 17 03:53 W 7 10 Mostly Cloudy FEW070 BKN090 47 38     71% 44   30.09 30.08     0
Feb 17 02:53 WNW 14 10 Mostly Cloudy SCT080 BKN100 49 36     61% 44   30.11 30.1      
Feb 17 01:53 NW 13 10 Partly Cloudy SCT027 SCT070 48 36     63% 43   30.11 30.11      
Feb 17 01:46 NW 14 10 Mostly Cloudy BKN027 BKN070 BKN085 47 37     68% 41   30.12        
Feb 17 00:53 WNW 13 10 Clear CLR 48 37     66% 43   30.12 30.12   0  
Feb 16 23:53 WNW 8 10 Mostly Clear FEW085 50 38     63%     30.13 30.13      
Feb 16 22:53 WSW 7 10 Partly Cloudy FEW065 SCT095 49 40     71% 46   30.14 30.14 0    
Feb 16 21:53 WSW 6 10 Clear   48 41     77% 45   30.15 30.15 0    
Feb 16 20:53 WNW 13 10 Mostly Cloudy SCT040 BKN048 51 39     63%     30.14 30.14      
Feb 16 19:53 WNW 11 10 Mostly Clear FEW043 51 39     63%     30.14 30.14      
Feb 16 18:53 WNW 14 10 Mostly Cloudy FEW045 BKN055 52 39     61%     30.14 30.14      
Feb 16 17:53 WNW 18 10 Partly Cloudy SCT045 53 40     61%     30.12 30.11      
Feb 16 16:53 WNW 17 10 Mostly Clear FEW035 57 40     53%     30.1 30.1      
Feb 16 15:53 NW 15 10 Clear CLR 61 36     39%     30.09 30.09      
Feb 16 14:53 NW 15 10 Mostly Clear FEW040 61 39     44%     30.08 30.08      
Feb 16 13:53 NW 13 10 Mostly Clear FEW040 61 38     42%     30.08 30.08      
Feb 16 12:53 NNW 10 10 Clear CLR 60 38     44%     30.11 30.11      
Feb 16 11:53 NW 11 10 Mostly Clear FEW035 59 36     42%     30.14 30.14      
Feb 16 10:53 NW 11 10 Mostly Clear FEW035 58 36     44%     30.17 30.17      
Feb 16 09:53 NNW 14 10 Clear CLR 56 37     49%     30.17 30.16      
Feb 16 08:53 WNW 11 10 Clear CLR 55 36     48%     30.18 30.18      
Feb 16 07:53   10 Clear CLR 52 38     59%     30.17 30.16      
May 15 11:53 S 8 10 Mostly Clear FEW040 63 53     70%     30.07 30.06      
May 15 01:53 Calm 10 Clear   52 47     83%     29.98 29.98      
May 14 16:53 W 15 10 Clear CLR 64 48     56%     29.96 29.95      
May 14 13:53   10 Clear CLR 66 50     56%     30 30      
May 12 22:53 W 8 10 Cloudy OVC042 58 53     84%     30.01 30.01      
May 12 00:53 Calm 10 Cloudy OVC019 57 51     81%     29.88 29.87      
May 11 17:53 W 7 10 Cloudy OVC018 58 51     78%     29.81 29.81      
May 11 08:53 SSW 6 8 Cloudy OVC026 59 53     81%     29.87 29.87      
Jun 11 20:53 WNW 13 10 Clear CLR 60 42     51%     29.93 29.93      
Jun 11 19:53 NNW 16 10 Clear CLR 63 41     45%     29.92 29.92      
Jun 10 01:53 E 6 10 Clear CLR 60 52     75%     29.86 29.86      
Jun 09 14:53   10 Partly Cloudy FEW004 SCT040 69 61     75%     29.91 29.91      
Jun 08 20:33 SE 11 10 Clear CLR 63 56     78%     29.9        
Jun 08 09:04 WSW 6 10 Partly Cloudy SCT030 64 56     75%     30.01        
Jun 08 04:53 Calm 10 Cloudy FEW010 OVC019 59 57     93%     29.99 29.98      
Jun 07 23:53 Calm 10 Cloudy OVC019 61 57     87%     29.98 29.97      
Jun 07 22:53 W 7 10 Cloudy OVC020 59 57     93%     29.98 29.98      
Jun 07 15:53 W 9 10 Cloudy OVC023 64 57     78%     29.95 29.95